[[{"header":{"parameterUnit":"m.s-1","parameterCategory":1,"la1":30.2992,"la2":30.254,"lo1":-89.0895,"lo2":-89.0443,"dy":0.0025,"dx":0.0025,"nx":19,"ny":19,"refTime":"2026-04-21T03:00:00:Z","depth":0,"parameterNumber":2,"parameterNumberName":"U-component_of_WINDS"},"data":[0,0,0,-4.5259,-4.5264,-4.5472,-4.5472,-4.5775,-4.5778,0,0,0,0,0,0,0,0,0,0,0,-4.5219,-4.5221,-4.5258,-4.5264,-4.5472,-4.5472,-4.5775,-4.5778,0,0,0,0,0,0,0,0,0,0,0,-4.5217,-4.5221,-4.5224,-4.5265,-4.5471,-4.5472,-4.5774,-4.5604,0,0,0,0,0,0,0,0,0,0,-4.5396,-4.538,-4.522,-4.5224,-4.5266,-4.5471,-4.5472,-4.5595,-4.5615,-4.5697,0,-4.5774,0,-4.5781,-4.5801,-4.5802,0,0,0,-4.5248,-4.5364,-4.54,-4.5225,-4.5268,-4.5471,-4.5373,-4.5606,-4.5628,-4.5723,-4.5778,-4.5789,-4.5786,-4.5803,-4.5805,-4.633,-4.6333,0,0,-4.5237,-4.5268,-4.5385,-4.5416,-4.5385,-4.5367,-4.538,-4.5618,-4.5682,-4.5779,-4.5795,-4.5791,-4.5805,-4.5808,-4.6327,-4.6331,0,0,0,-4.5215,-4.5261,-4.529,-4.5404,-4.5439,-4.5373,-4.5389,-4.5671,-4.5678,-4.5798,-4.5795,-4.5807,-4.5811,-4.6323,-4.6328,-4.6518,0,0,0,-4.5207,-4.5247,-4.5286,-4.5307,-4.5435,-4.5557,-4.5436,-4.5662,-4.5687,-4.5793,-4.5807,-4.5815,-4.632,-4.6326,-4.6505,-4.6604,0,0,0,-4.5198,-4.5246,-4.5283,-4.5308,-4.5399,-4.5553,-4.5573,-4.5666,-4.5687,-4.5802,-4.5816,-4.6317,-4.6325,-4.6494,-4.6584,-4.6753,0,0,0,-4.5197,-4.5448,-4.5287,-4.5566,-4.5397,-4.5668,-4.5571,-4.5771,-4.5892,-4.5809,-4.632,-4.6328,-4.649,-4.6573,-4.6741,-4.6902,-4.6972,0,0,-4.5531,-4.5489,-4.5651,-4.5513,-4.582,-4.5633,-4.5969,-4.6051,-4.6033,-4.6232,-4.6245,-4.6509,-4.6583,-4.6751,-4.7345,-4.74,0,0,0,-4.5767,-4.5885,-4.5959,-4.6076,-4.6145,-4.6213,-4.624,-4.627,-4.6438,-4.6141,-4.6613,-4.6656,-4.6753,-4.6829,-4.6876,-4.6959,-4.6363,-4.6362,-4.6362,-4.6286,-4.625,-4.6516,-4.6507,-4.6622,-4.6648,-4.6739,-4.6785,-4.6714,-4.6827,-4.6886,-4.7251,-4.7341,-4.7376,-4.7463,-4.6966,-4.6967,-4.6967,-4.6968,-4.6774,-4.6936,-4.6837,-4.706,-4.7022,-4.7209,-4.7244,-4.7189,-4.7359,-4.7203,-4.7286,-4.7122,-4.7438,-4.7512,-4.6982,-4.698,-4.6978,-4.6976,-4.6975,-4.7112,-4.7184,-4.7216,-4.7384,-4.7517,-4.7498,-4.7667,-4.7624,-4.7586,-4.7668,-4.7729,-4.7726,-4.772,-4.77,-4.7701,-4.7702,-4.7703,-4.7704,-4.7705,-4.7451,-4.7482,-4.7629,-4.7724,-4.7795,-4.7883,-4.7913,-4.7982,-4.8048,-4.8004,-4.8005,-4.7926,-4.7475,-4.7364,-4.7725,-4.7721,-4.7719,-4.7717,-4.7716,-4.7965,-4.7842,-4.8069,-4.8141,-4.825,-4.8387,-4.833,-4.8476,-4.8526,-4.8612,-4.8515,-4.8187,-4.8141,-4.8104,-4.8012,-4.8519,-4.8519,-4.8519,-4.8519,-4.8252,-4.8224,-4.8448,-4.8566,-4.8676,-4.8648,-4.8909,-4.8936,-4.8944,-4.8974,-4.8894,-4.8767,-4.8731,-4.8707,-4.8656,-4.8571,-4.9208,-4.9209,-4.9209,-4.8567,-4.8549,-4.8778,-4.8783,-4.8866,-4.8939,-4.9184,-4.9324,-4.9307,-4.9236,-4.8997,-4.8968,-4.8764,-4.8699,-4.8625,-4.8547,-4.8388,0,0]},{"header":{"parameterUnit":"m.s-1","parameterCategory":1,"la1":30.2992,"la2":30.254,"lo1":-89.0895,"lo2":-89.0443,"dy":0.0025,"dx":0.0025,"nx":19,"ny":19,"refTime":"2026-04-21T03:00:00:Z","depth":0,"parameterNumber":3,"parameterNumberName":"V-component_of_WINDS"},"data":[0,0,0,-0.5759,-0.5758,-0.5688,-0.5688,-0.5589,-0.5588,0,0,0,0,0,0,0,0,0,0,0,-0.5776,-0.5775,-0.5759,-0.5757,-0.5688,-0.5688,-0.5589,-0.5588,0,0,0,0,0,0,0,0,0,0,0,-0.5776,-0.5775,-0.5774,-0.5757,-0.5688,-0.5688,-0.5589,-0.5645,0,0,0,0,0,0,0,0,0,0,-0.5713,-0.5726,-0.5775,-0.5774,-0.5757,-0.5688,-0.5688,-0.5647,-0.5641,-0.5616,0,-0.5595,0,-0.559,-0.5581,-0.558,0,0,0,-0.576,-0.5731,-0.5716,-0.5774,-0.5756,-0.5689,-0.572,-0.5644,-0.5637,-0.5608,-0.5594,-0.559,-0.5588,-0.558,-0.5579,-0.5429,-0.5428,0,0,-0.5764,-0.5761,-0.5721,-0.5711,-0.5724,-0.5722,-0.5718,-0.564,-0.5624,-0.5593,-0.5588,-0.5586,-0.5579,-0.5578,-0.543,-0.5429,0,0,0,-0.5773,-0.5763,-0.575,-0.5715,-0.5703,-0.572,-0.5715,-0.5627,-0.5623,-0.5587,-0.5585,-0.5579,-0.5577,-0.5431,-0.543,-0.5385,0,0,0,-0.5775,-0.5769,-0.5752,-0.5749,-0.5705,-0.5665,-0.5704,-0.5629,-0.562,-0.5586,-0.5579,-0.5576,-0.5432,-0.543,-0.5388,-0.5364,0,0,0,-0.5781,-0.577,-0.5758,-0.5749,-0.572,-0.5666,-0.5658,-0.5627,-0.5619,-0.558,-0.5576,-0.5432,-0.543,-0.5391,-0.5369,-0.5321,0,0,0,-0.5787,-0.5721,-0.5758,-0.5683,-0.572,-0.564,-0.5659,-0.5599,-0.5561,-0.5578,-0.5432,-0.543,-0.5392,-0.5372,-0.5324,-0.5279,-0.5261,0,0,-0.5702,-0.5711,-0.5667,-0.5698,-0.561,-0.5651,-0.5556,-0.5524,-0.5522,-0.546,-0.5456,-0.5387,-0.5369,-0.5322,-0.5163,-0.5148,0,0,0,-0.5639,-0.5607,-0.5585,-0.5549,-0.5522,-0.5496,-0.5479,-0.5466,-0.5413,-0.549,-0.5358,-0.5348,-0.532,-0.5298,-0.5286,-0.5261,-0.542,-0.5421,-0.5421,-0.5515,-0.5516,-0.5443,-0.5434,-0.5398,-0.5379,-0.5349,-0.5328,-0.5341,-0.5309,-0.529,-0.5194,-0.5169,-0.516,-0.5133,-0.5269,-0.5268,-0.5268,-0.5268,-0.5389,-0.5343,-0.5359,-0.5294,-0.5294,-0.5238,-0.5215,-0.5225,-0.5171,-0.521,-0.5185,-0.5226,-0.5144,-0.512,-0.5265,-0.5265,-0.5266,-0.5266,-0.5266,-0.5306,-0.5284,-0.527,-0.5214,-0.5171,-0.5164,-0.511,-0.5113,-0.5115,-0.5091,-0.5069,-0.5069,-0.5068,-0.5081,-0.508,-0.508,-0.508,-0.5079,-0.5079,-0.5226,-0.5211,-0.5166,-0.513,-0.5104,-0.5071,-0.5048,-0.5023,-0.4994,-0.5,-0.5,-0.5013,-0.5137,-0.5166,-0.5074,-0.5075,-0.5075,-0.5076,-0.5076,-0.5094,-0.5123,-0.5054,-0.5029,-0.4984,-0.4938,-0.4942,-0.4888,-0.4867,-0.4839,-0.4857,-0.4949,-0.4957,-0.4967,-0.4991,-0.4859,-0.4859,-0.4859,-0.4859,-0.5022,-0.5027,-0.4955,-0.4913,-0.4872,-0.4867,-0.4784,-0.4763,-0.4747,-0.4733,-0.4753,-0.4786,-0.4796,-0.4798,-0.4812,-0.4834,-0.4665,-0.4665,-0.4665,-0.494,-0.494,-0.4871,-0.4856,-0.482,-0.4788,-0.4708,-0.4656,-0.4644,-0.4657,-0.4721,-0.4729,-0.4783,-0.4801,-0.4814,-0.4835,-0.4877,0,0]}]]